Wind_Speed
41 43 42 42 44 45 46 48 47 45 44 45 45 46 47 49 51 53 54 52 51 49 49 49 49 50 49 47 46 46 45 44 45 44 44 43 42 41 40 39 39 38 37 37
38 39 39 40 42 43 44 45 45 43 42 43 44 44 45 46 48 50 52 53 51 50 49 48 48 50 51 50 49 48 48 47 47 47 47 46 45 44 43 42 42 41 40 40
34 36 36 38 40 42 42 42 41 40 40 41 41 42 43 43 45 46 48 51 54 52 51 50 49 49 49 50 50 50 49 48 48 48 48 47 47 47 46 45 45 44 43 43
32 32 32 35 36 38 39 39 38 37 37 37 38 39 40 41 43 44 44 46 50 54 53 52 51 50 49 50 50 50 50 50 50 50 49 48 48 48 48 47 47 46 45 45
28 28 30 33 34 36 37 36 36 36 35 35 35 36 36 38 39 41 42 43 46 50 52 53 53 52 51 50 50 50 50 50 51 51 51 50 49 49 49 48 48 47 47 46
25 26 29 31 33 34 34 34 33 34 34 34 33 33 32 33 34 35 39 42 43 46 48 50 52 52 51 50 50 49 49 49 50 50 50 49 49 49 49 49 49 49 48 47
23 26 28 30 30 32 33 33 32 33 34 34 32 32 30 29 31 33 35 38 42 43 45 46 48 50 50 50 49 49 49 49 49 48 48 48 48 48 48 49 49 48 48 47
21 24 27 28 28 29 31 32 32 32 33 32 30 31 29 27 29 31 32 35 38 40 42 44 45 47 47 47 48 49 49 48 48 48 48 48 48 48 48 48 48 48 48 48
20 23 24 26 27 27 28 30 31 31 30 29 29 29 27 26 27 29 30 32 34 36 38 40 42 44 45 46 47 48 48 48 48 47 47 48 48 48 48 48 48 48 48 48
19 21 23 25 25 26 26 27 29 30 29 28 28 27 26 26 27 28 29 30 32 33 34 36 38 40 42 43 45 46 47 48 48 48 48 48 48 48 49 49 48 48 48 48
17 19 21 23 25 25 25 26 27 28 28 27 27 25 25 26 27 28 29 30 31 33 33 34 36 37 39 41 43 44 45 47 48 48 49 49 50 50 50 50 50 50 50 49
15 16 18 19 21 23 24 24 25 27 26 26 25 24 23 23 24 25 27 29 31 33 34 35 36 37 38 40 41 43 45 46 47 48 48 49 49 50 50 51 51 51 50 50
15 16 17 19 21 22 23 24 24 25 25 25 25 23 21 21 22 25 27 29 31 32 33 34 35 36 38 39 40 42 43 44 45 46 47 48 48 49 49 49 49 48 48 48
15 16 18 19 20 21 22 23 25 26 26 26 24 22 20 22 25 27 28 29 30 31 32 33 34 36 37 38 39 40 41 42 43 44 45 46 46 46 47 46 46 46 46 45
16 17 18 20 21 22 23 23 24 25 25 26 24 23 22 24 27 28 28 28 29 29 31 32 33 33 34 36 37 38 39 40 41 42 42 43 44 44 44 44 44 43 43 42
17 18 19 20 21 23 23 24 24 25 25 25 25 24 25 26 28 28 28 28 28 29 30 31 32 32 33 34 35 36 37 38 39 40 40 41 41 41 41 41 41 41 41 40
17 18 19 20 21 23 23 23 24 25 25 26 26 25 26 26 27 28 29 28 28 28 30 31 32 32 33 33 34 35 36 37 37 38 38 38 39 39 39 38 37 37 37 37
17 19 20 20 21 23 23 23 24 25 26 27 26 25 26 26 27 28 29 28 28 29 30 30 31 32 33 33 34 35 35 36 36 36 36 37 37 37 36 36 35 35 35 34
18 18 19 20 21 22 23 23 24 26 27 27 26 25 25 25 25 27 28 28 28 29 30 30 31 31 32 32 33 33 34 34 35 35 34 34 34 34 34 34 33 33 32 32
18 19 19 19 20 21 22 22 24 25 26 26 25 25 24 24 24 25 27 27 27 27 28 28 29 29 30 31 31 32 32 32 32 32 32 32 32 32 31 31 31 31 30 30
19 19 20 20 21 22 21 21 22 23 24 24 24 24 24 24 24 24 25 25 25 25 26 26 27 28 28 28 28 29 29 30 29 28 28 29 29 29 29 29 29 29 28 28
19 19 20 20 21 22 21 21 22 22 22 22 22 22 22 23 23 23 23 23 23 24 24 24 25 25 26 27 27 27 27 27 27 27 27 27 27 28 28 28 27 27 27 27
20 20 20 21 21 22 21 21 22 22 23 23 23 23 23 23 23 23 22 22 22 23 23 23 24 24 24 25 26 26 25 25 25 26 26 26 26 26 26 26 26 26 26 26
22 22 22 22 22 22 22 22 22 22 22 23 23 23 23 23 23 23 23 22 22 22 23 23 23 23 23 24 24 24 24 24 24 24 25 25 25 25 25 25 25 25 25 25
23 23 23 23 23 24 24 24 24 24 24 24 24 24 24 24 23 23 23 23 23 23 22 23 23 23 23 23 24 23 23 23 23 23 23 24 24 25 25 25 26 26 26 26
22 23 24 24 25 25 25 26 26 26 26 27 26 26 26 25 25 25 24 24 24 24 23 23 23 23 22 22 23 23 23 23 23 23 23 24 24 24 25 25 25 26 27 27
Wind_Direction
185 187 192 196 200 202 205 208 210 212 213 216 218 218 219 221 221 222 224 226 229 231 232 232 232 233 234 237 239 241 242 243 244 244 245 247 250 253 256 260 263 267 270 273
181 185 190 193 196 200 203 206 209 212 213 216 219 221 222 222 222 223 225 226 228 231 233 234 235 235 237 238 240 243 245 246 246 246 246 248 251 253 257 260 264 267 270 273
177 182 187 190 195 199 202 205 208 211 213 217 220 223 224 225 225 225 227 228 229 231 233 234 236 237 238 240 241 243 246 247 247 247 248 250 252 255 258 260 263 266 269 272
175 178 185 188 194 198 202 204 207 210 214 218 222 226 226 228 229 228 229 230 230 231 232 234 236 238 240 240 242 244 245 247 247 248 250 252 253 255 258 261 263 266 268 270
174 179 183 188 193 197 201 205 209 211 215 219 223 227 228 230 232 233 234 233 233 233 234 234 236 237 239 240 242 244 245 246 248 249 251 253 254 256 258 260 262 264 266 268
174 176 182 187 193 196 198 203 208 212 215 220 222 227 226 229 233 235 236 236 235 235 235 236 235 236 238 240 242 243 245 246 247 248 251 252 254 255 257 259 261 263 265 267
174 180 183 186 191 196 199 202 207 211 216 220 222 228 227 227 231 234 235 236 236 236 237 238 238 237 238 239 240 242 243 245 247 249 251 253 254 256 258 259 261 263 265 266
173 180 186 188 192 197 200 204 209 214 218 222 224 229 230 229 231 234 236 237 237 238 239 240 239 238 239 239 240 242 244 245 247 249 251 253 255 256 258 259 261 263 265 267
177 181 186 191 194 197 200 206 210 215 221 225 227 230 232 230 230 233 236 237 238 240 241 242 243 242 241 241 242 244 245 246 247 249 251 253 254 256 258 260 262 264 265 267
182 186 189 193 197 200 203 209 213 218 222 227 229 231 231 231 233 234 237 238 239 239 241 242 244 245 244 244 244 246 247 248 249 250 251 253 254 256 258 260 262 263 265 267
188 192 198 202 204 206 208 211 216 220 224 227 231 234 235 237 238 238 239 241 243 243 244 244 244 245 246 247 247 248 248 249 250 251 252 253 255 257 258 260 262 264 265 267
194 198 203 207 209 210 213 215 219 225 229 232 236 236 238 240 241 242 243 244 246 247 248 248 248 248 248 248 249 250 251 251 252 253 254 255 256 258 260 261 263 265 266 267
205 209 210 212 214 215 218 220 224 230 234 236 238 239 239 243 245 244 245 246 248 249 250 250 251 251 251 251 251 251 251 252 254 255 256 257 258 259 261 262 264 265 267 268
218 219 220 222 223 222 223 226 229 233 236 238 240 243 245 246 245 246 248 250 251 252 253 253 252 253 253 253 254 254 254 254 255 256 256 258 259 260 261 262 264 265 266 268
226 227 227 228 229 228 230 232 236 239 241 243 242 244 245 247 248 250 253 255 256 257 256 255 254 255 255 255 255 255 255 255 256 257 257 259 260 261 261 262 263 265 266 266
232 232 233 234 234 234 235 238 240 242 244 245 246 247 248 250 252 253 255 257 259 259 258 257 256 256 256 257 257 257 257 257 258 258 258 259 260 260 261 262 262 263 264 265
234 235 237 238 239 239 240 242 244 245 246 248 250 251 252 252 253 255 257 259 260 259 257 257 256 256 256 257 258 257 257 258 258 259 259 259 259 260 260 261 262 263 264 265
239 240 241 242 242 243 243 243 244 245 247 250 252 253 255 255 255 256 257 258 259 259 259 259 258 257 257 258 258 258 258 258 259 260 260 260 260 260 261 261 262 263 263 264
244 244 245 245 246 247 246 245 245 247 250 253 254 255 256 257 256 257 257 258 260 260 260 259 259 259 258 258 258 259 259 260 260 261 261 261 261 261 261 261 261 261 262 263
246 247 248 247 247 247 247 247 248 250 253 254 256 257 258 257 256 256 258 259 261 261 259 259 258 258 257 257 258 259 259 260 260 261 261 260 260 260 260 260 260 260 261 261
247 248 249 249 249 250 249 249 249 251 254 255 255 256 257 256 256 256 258 259 259 259 258 257 257 256 256 257 258 258 259 259 259 260 260 259 260 260 259 259 259 259 259 259
250 249 249 250 251 253 252 252 251 253 254 255 255 256 256 256 257 257 257 258 258 258 258 258 257 256 255 256 257 258 257 257 257 258 259 259 259 259 258 258 258 258 258 259
251 252 253 253 254 255 254 253 253 253 254 254 255 256 256 257 257 257 257 257 257 257 257 258 258 257 256 256 256 256 255 256 256 256 257 257 258 258 257 257 257 257 259 259
254 254 255 256 257 258 258 258 257 256 255 256 256 256 256 258 258 257 256 257 257 256 256 257 257 257 257 256 256 254 254 254 255 257 257 256 258 258 258 257 258 259 261 261
257 258 259 259 260 261 261 260 259 259 259 258 257 257 256 257 258 258 257 256 257 257 256 256 257 257 257 256 255 252 252 254 255 256 258 258 258 259 259 259 260 261 262 264
259 259 260 261 263 264 263 264 263 262 262 261 260 259 258 258 257 258 258 257 256 257 256 256 256 256 255 255 254 252 252 254 255 257 258 259 259 259 261 263 265 265 265 266
Height
5623 5634 5643 5654 5664 5674 5683 5691 5699 5706 5713 5720 5726 5732 5737 5742 5749 5756 5762 5769 5775 5782 5787 5792 5797 5802 5806 5810 5814 5817 5820 5823 5826 5828 5830 5832 5835 5836 5838 5839 5840 5841 5842 5842
5624 5633 5643 5651 5660 5669 5678 5686 5694 5702 5709 5714 5720 5725 5731 5736 5743 5750 5756 5762 5769 5774 5779 5784 5789 5794 5798 5802 5806 5809 5812 5815 5818 5820 5822 5825 5826 5828 5830 5832 5833 5833 5834 5834
5625 5634 5641 5650 5658 5667 5675 5683 5691 5698 5704 5709 5715 5720 5726 5732 5737 5743 5750 5756 5761 5766 5771 5775 5780 5785 5789 5793 5797 5801 5804 5807 5809 5812 5814 5816 5818 5820 5822 5823 5824 5825 5826 5826
5626 5634 5641 5649 5657 5665 5673 5681 5688 5694 5700 5705 5711 5717 5723 5727 5732 5738 5744 5748 5753 5757 5762 5767 5771 5776 5780 5784 5788 5792 5795 5798 5800 5803 5805 5808 5810 5812 5813 5815 5816 5817 5817 5818
5629 5635 5642 5649 5657 5664 5671 5678 5685 5691 5697 5702 5707 5712 5718 5722 5727 5732 5736 5740 5744 5748 5753 5757 5762 5767 5771 5775 5779 5782 5786 5788 5791 5793 5796 5798 5800 5802 5804 5805 5807 5807 5808 5808
5631 5637 5643 5649 5656 5663 5670 5677 5682 5687 5692 5698 5703 5707 5713 5717 5722 5725 5728 5731 5735 5739 5743 5748 5752 5757 5762 5766 5770 5773 5776 5779 5781 5784 5786 5788 5791 5793 5794 5796 5797 5798 5798 5799
5633 5638 5643 5649 5655 5661 5668 5674 5680 5684 5688 5694 5699 5702 5709 5712 5715 5717 5720 5723 5727 5731 5735 5740 5744 5749 5753 5756 5759 5762 5765 5768 5771 5774 5776 5779 5781 5783 5784 5786 5787 5788 5788 5789
5635 5639 5644 5650 5655 5660 5666 5672 5678 5683 5686 5691 5695 5698 5704 5707 5708 5710 5713 5716 5719 5723 5727 5731 5735 5739 5743 5746 5749 5753 5756 5759 5761 5764 5767 5769 5771 5772 5774 5775 5776 5777 5778 5778
5637 5641 5645 5650 5654 5659 5664 5669 5674 5679 5683 5687 5690 5694 5698 5701 5702 5704 5707 5710 5713 5716 5720 5723 5727 5730 5734 5737 5740 5743 5746 5749 5751 5754 5756 5758 5760 5762 5763 5765 5766 5767 5767 5767
5639 5642 5645 5649 5653 5657 5662 5667 5671 5675 5679 5683 5686 5689 5693 5695 5697 5699 5701 5704 5706 5709 5712 5715 5718 5721 5725 5728 5731 5733 5736 5739 5742 5744 5746 5748 5750 5751 5753 5754 5755 5756 5756 5756
5640 5643 5646 5649 5652 5656 5661 5665 5668 5672 5675 5679 5682 5687 5687 5689 5691 5694 5696 5698 5700 5703 5705 5708 5710 5713 5716 5718 5721 5723 5726 5729 5731 5733 5735 5737 5739 5740 5742 5743 5744 5744 5745 5745
5640 5643 5645 5648 5651 5654 5658 5661 5665 5669 5671 5674 5677 5683 5682 5684 5685 5687 5689 5691 5693 5695 5698 5700 5702 5705 5707 5709 5711 5714 5716 5718 5720 5722 5724 5726 5727 5729 5730 5731 5732 5733 5733 5734
5640 5643 5645 5647 5651 5653 5655 5658 5661 5664 5666 5669 5672 5678 5678 5679 5680 5681 5683 5684 5686 5688 5690 5692 5694 5696 5698 5700 5702 5704 5706 5708 5710 5711 5713 5715 5716 5718 5719 5720 5721 5721 5722 5722
5639 5641 5644 5646 5648 5650 5652 5655 5657 5659 5661 5664 5667 5671 5672 5672 5673 5675 5676 5677 5679 5681 5683 5684 5686 5687 5689 5691 5692 5694 5696 5697 5699 5700 5702 5704 5705 5707 5708 5709 5709 5710 5710 5711
5637 5639 5640 5642 5644 5646 5648 5650 5652 5654 5657 5659 5662 5664 5665 5665 5666 5668 5670 5671 5672 5674 5675 5676 5677 5679 5680 5682 5683 5684 5686 5687 5689 5690 5691 5693 5694 5696 5697 5697 5698 5699 5699 5699
5634 5636 5637 5639 5640 5642 5644 5646 5647 5649 5651 5653 5655 5657 5658 5658 5660 5661 5662 5664 5665 5666 5667 5668 5669 5670 5672 5673 5674 5676 5677 5678 5679 5680 5681 5682 5683 5685 5686 5686 5687 5688 5688 5688
5631 5632 5634 5635 5636 5638 5640 5642 5642 5644 5645 5647 5648 5651 5651 5652 5653 5654 5655 5656 5657 5658 5658 5659 5661 5662 5663 5664 5666 5667 5667 5668 5669 5670 5671 5672 5673 5674 5675 5676 5677 5677 5678 5678
5627 5628 5629 5631 5632 5634 5637 5636 5637 5638 5639 5640 5642 5643 5644 5646 5646 5647 5648 5649 5649 5650 5650 5651 5652 5654 5655 5656 5657 5658 5659 5659 5660 5661 5662 5662 5663 5664 5665 5666 5667 5667 5668 5668
5622 5624 5625 5626 5627 5628 5630 5630 5631 5632 5633 5634 5636 5637 5638 5639 5639 5640 5640 5641 5641 5642 5642 5643 5644 5645 5646 5647 5648 5649 5650 5650 5651 5652 5652 5653 5654 5655 5656 5657 5657 5658 5659 5659
5617 5618 5620 5621 5621 5623 5625 5625 5625 5627 5627 5628 5629 5630 5631 5632 5633 5633 5633 5633 5634 5634 5634 5635 5636 5637 5638 5639 5639 5640 5641 5642 5642 5643 5644 5644 5645 5646 5647 5648 5649 5649 5650 5651
5612 5613 5614 5615 5615 5616 5618 5618 5620 5622 5622 5622 5622 5623 5624 5624 5626 5626 5626 5626 5626 5626 5627 5627 5628 5629 5630 5631 5631 5632 5633 5633 5634 5635 5636 5636 5637 5638 5639 5640 5641 5641 5642 5643
5607 5608 5608 5609 5610 5613 5612 5613 5614 5615 5615 5615 5616 5616 5617 5618 5618 5618 5619 5619 5619 5619 5620 5620 5621 5621 5622 5623 5624 5624 5625 5626 5627 5628 5628 5629 5630 5631 5631 5632 5633 5634 5634 5635
5601 5602 5603 5604 5606 5605 5605 5606 5607 5607 5608 5608 5609 5610 5610 5611 5611 5611 5612 5612 5612 5613 5613 5614 5614 5614 5615 5616 5616 5617 5618 5619 5620 5621 5621 5622 5623 5624 5624 5625 5626 5626 5627 5628
5595 5595 5596 5597 5598 5598 5598 5599 5600 5600 5601 5601 5602 5602 5603 5603 5604 5604 5605 5605 5605 5606 5606 5607 5607 5608 5608 5609 5609 5610 5611 5612 5613 5614 5615 5615 5616 5617 5617 5618 5619 5619 5620 5620
5588 5589 5590 5590 5591 5591 5591 5591 5592 5593 5593 5594 5594 5595 5595 5596 5596 5597 5597 5598 5598 5599 5599 5600 5600 5601 5601 5602 5603 5603 5604 5605 5606 5607 5608 5609 5609 5610 5611 5611 5612 5612 5613 5613
5581 5582 5583 5583 5583 5584 5584 5583 5584 5584 5585 5585 5586 5586 5587 5587 5588 5589 5589 5590 5591 5591 5592 5593 5593 5594 5595 5595 5596 5597 5598 5599 5600 5601 5601 5602 5603 5603 5604 5604 5605 5605 5605 5605